Regional Weather Roundup
Issued by NWS

Home | Current Version | Previous Version | Graphics & Text | Print | Product List | Glossary On
Versions: 1 2 3 4 5 6 7 8 9 10 11 12 13 14 15 16 17 18 19 20 21 22 23 24 25 26 27 28 29 30 31 32 33 34 35 36 37 38 39 40 41 42 43 44 45 46 47 48 49 50
000
ASUS43 KOAX 260710
RWRNE

WEATHER ROUNDUP FOR NEBRASKA
NATIONAL WEATHER SERVICE OMAHA NE
100 AM CST MON JAN 26 2015

NOTES: SATELLITE DATA IS BEING USED TO AUGMENT CLOUD COVER ABOVE
       12000 FEET.
       "FAIR" INDICATES FEW OR NO CLOUDS BELOW 12,000 FEET WITH NO
       SIGNIFICANT WEATHER AND/OR OBSTRUCTIONS TO VISIBILITY.

  * THESE STATIONS DO NOT REPORT WEATHER SUCH AS RAIN...SNOW OR FOG.

NEZ001>004-019>022-054>056-260800-
NEBRASKA PANHANDLE

CITY           SKY/WX    TMP DP  RH WIND       PRES   REMARKS
SCOTTSBLUFF    MOCLDY    34  30  85 NW6       30.12F WCI  29
ALLIANCE       MOCLDY    35  30  82 W12       30.06S WCI  27
CHADRON        MOCLDY    46  31  55 W17       30.04S
KIMBALL        MOCLDY    42  30  62 W18       30.13F
SIDNEY         PTCLDY    41  30  65 W16       30.12F
$$

NEZ057>060-069>072-079>082-260800-
SOUTHWEST NEBRASKA

CITY           SKY/WX    TMP DP  RH WIND       PRES   REMARKS
NORTH PLATTE   CLEAR     31  27  85 W8        30.01F WCI  23
IMPERIAL       CLEAR     42  30  62 W15       30.06F
LEXINGTON      CLEAR     37  24  60 W6        30.00F WCI  32
MCCOOK         CLEAR     35  29  78 W10       30.04F WCI  27
OGALLALA       CLEAR     45  33  62 W13       30.06S
$$

NEZ005>010-023>029-035>040-094-260800-
NORTH CENTRAL NEBRASKA

CITY           SKY/WX    TMP DP  RH WIND       PRES   REMARKS
VALENTINE      CLEAR     33  29  85 SW9       29.94F WCI  25
AINSWORTH      PTCLDY    37  31  81 W10       29.94F WCI  29
BROKEN BOW     CLEAR     34  27  75 SW3       29.98F
O`NEILL        MOCLDY    34  32  90 SW8       29.93F WCI  28
ORD            PTCLDY    33  27  78 SE3       29.98F
THEDFORD       PTCLDY    38  33  80 W10       29.99R WCI  32
$$

NEZ041-046>049-061>064-073>077-083>087-260800-
SOUTH CENTRAL NEBRASKA

CITY           SKY/WX    TMP DP  RH WIND       PRES   REMARKS
GRAND ISLAND   CLOUDY    31  27  85 S6        30.04F WCI  25
AURORA         CLOUDY    32  28  85 SW6       30.03F WCI  27
HASTINGS       CLOUDY    33  26  75 S6        30.03S WCI  28
HEBRON         PTCLDY    24  21  90 CALM      30.08S
HOLDREGE       MOCLDY    36  26  66 SW9       30.01F WCI  29
KEARNEY *      PTCLDY    34  27  75 SW8       30.01F WCI  27
YORK           CLOUDY    32  28  86 SW5       30.04F WCI  27
$$

NEZ011>018-030>034-042>045-260800-
NORTHEAST NEBRASKA

CITY           SKY/WX    TMP DP  RH WIND       PRES   REMARKS
NORFOLK        CLOUDY    34  31  88 S7        29.97F WCI  28
ALBION         CLOUDY    35  29  79 SE5       30.00F WCI  31
BLAIR          PTCLDY    30  28  94 S7        30.02F FOG     WCI  23
COLUMBUS *     CLOUDY    36  28  75 SW7       30.03F WCI  30
FREMONT        CLEAR     32  30  94 SW5       30.03F WCI  27
TEKAMAH        CLEAR     29  27  92 S7        30.03F WCI  22
WAYNE          CLEAR     32  31  96 SW10      29.98F WCI  24
$$

NEZ050>053-065>068-078-088>093-260800-
SOUTHEAST NEBRASKA

CITY           SKY/WX    TMP DP  RH WIND       PRES   REMARKS
LINCOLN        CLOUDY    30  27  88 CALM      30.07S
OMAHA EPPLEY   PTCLDY    28  25  88 SE7       30.05F WCI  21
BEATRICE       MOCLDY    29  28  94 CALM      30.07S
FALLS CITY     CLEAR     28  25  88 SW5       30.08S WCI  23
NEBRASKA CITY  MOCLDY    28  26  95 SW6       30.07S WCI  21
PLATTSMOUTH    PTCLDY    29  27  90 S7        30.04F WCI  22
$$

NEZ044-045-051>053-067-260800-
OMAHA AREA

CITY           SKY/WX    TMP DP  RH WIND       PRES   REMARKS
OMAHA EPPLEY   PTCLDY    28  25  88 SE7       30.05F WCI  21
BLAIR          PTCLDY    30  28  94 S7        30.02F FOG     WCI  23
FREMONT        CLEAR     32  30  94 SW5       30.03F WCI  27
MILLARD        CLEAR     29  28  94 CALM      30.05F FOG
OFFUTT AFB     PTCLDY    26  24  93 SE3       30.04F
PLATTSMOUTH    PTCLDY    29  27  90 S7        30.04F WCI  22
WAHOO          FAIR      29  27  90 SW7       30.04F WCI  22
$$



USA.gov is the U.S. government's official web portal to all federal, state and local government web resources and services.